Bay City, TX

8:26 PM CST on February 24, 2018 (GMT -0600)
Bay City

Weather History for KBYY - February, 2012

Change the Weather History Date:

Wednesday, February 8, 2012

  Actual Average (KLBX) Record (KLBX)
Temperature  
Mean Temperature 57 °F -  
Max Temperature 62 °F 62 °F 81 °F (2017)
Min Temperature 52 °F 46 °F 30 °F (2011)
Degree Days  
Heating Degree Days 8    
Growing Degree Days 7 (Base 50)    
Moisture  
Dew Point 47 °F    
Average Humidity 68    
Maximum Humidity 80    
Minimum Humidity 53    
Precipitation  
Precipitation 0.00 in - - ()
Sea Level Pressure  
Sea Level Pressure 30.32 in    
Wind  
Wind Speed 9 mph (North)    
Max Wind Speed 15 mph    
Max Gust Speed 21 mph    
Visibility 10 miles    
Events      
Averages and records for this station are not official NWS values.
T = Trace of Precipitation, MM = Missing Value Source: NWS Daily Summary

Daily Weather History Graph

Daily Weather History Graph

Search for Another Location

Airport or City:

Trip Planner

Search our weather history database for the weather conditions in past years. The results will help you decide how hot, cold, wet, or windy it might be!

Date:

Astronomy

Feb. 08, 2012 Rise Set
Actual Time 7:07 AM CST 6:07 PM CST
Civil Twilight 6:43 AM CST 6:32 PM CST
Nautical Twilight 6:15 AM CST 7:00 PM CST
Astronomical Twilight 5:47 AM CST 7:28 PM CST
Moon 7:17 PM CST (2/8) 7:20 AM CST (2/8)
Length of Visible Light 11h 48m
Length of Day
10h 59m
Full, 99% of the Moon is Illuminated
Feb 8
Full
Feb 14
Last Quarter
Feb 21
New
Feb 29
First Quarter
Mar 8
Full

Hourly Weather History & Observations

Time (CST) Temp. Dew Point Humidity Pressure Visibility Wind Dir Wind Speed Gust Speed Precip Events Conditions
12:15 AM 57.7 °F 47.8 °F 70% 30.28 in 10.0 mi North 6.9 mph - N/A   Mostly Cloudy
12:35 AM 57.4 °F 48.2 °F 71% 30.28 in 10.0 mi North 5.8 mph - N/A   Overcast
12:55 AM 57.2 °F 48.6 °F 73% 30.27 in 10.0 mi North 9.2 mph - N/A   Overcast
1:15 AM 57.2 °F 48.2 °F 72% 30.28 in 10.0 mi North 5.8 mph - N/A   Overcast
1:35 AM 57.0 °F 48.2 °F 72% 30.28 in 10.0 mi North 5.8 mph - N/A   Overcast
1:55 AM 56.7 °F 48.2 °F 73% 30.29 in 10.0 mi NNE 4.6 mph - N/A   Overcast
2:15 AM 56.3 °F 48.4 °F 75% 30.29 in 10.0 mi North 5.8 mph - N/A   Overcast
2:35 AM 56.3 °F 48.4 °F 75% 30.29 in 10.0 mi North 5.8 mph - N/A   Overcast
2:55 AM 56.3 °F 48.4 °F 75% 30.29 in 10.0 mi North 6.9 mph - N/A   Overcast
3:15 AM 56.3 °F 48.2 °F 74% 30.29 in 10.0 mi NNE 6.9 mph - N/A   Overcast
3:35 AM 56.1 °F 48.2 °F 75% 30.29 in 10.0 mi NNE 6.9 mph - N/A   Overcast
3:55 AM 55.9 °F 48.2 °F 75% 30.29 in 10.0 mi North 6.9 mph - N/A   Overcast
4:15 AM 55.8 °F 47.8 °F 75% 30.29 in 10.0 mi North 8.1 mph - N/A   Overcast
4:35 AM 55.6 °F 47.5 °F 74% 30.29 in 10.0 mi NNE 11.5 mph 17.3 mph N/A   Overcast
4:55 AM 55.0 °F 47.3 °F 75% 30.29 in 10.0 mi NNE 10.4 mph - N/A   Mostly Cloudy
5:15 AM 54.5 °F 46.8 °F 75% 30.30 in 10.0 mi NNE 12.7 mph - N/A   Clear
5:35 AM 54.3 °F 46.2 °F 74% 30.30 in 10.0 mi NNE 11.5 mph - N/A   Clear
5:55 AM 53.8 °F 46.0 °F 75% 30.31 in 10.0 mi NNE 12.7 mph 17.3 mph N/A   Clear
6:15 AM 53.6 °F 45.9 °F 75% 30.32 in 10.0 mi NNE 12.7 mph - N/A   Clear
6:35 AM 52.9 °F 46.2 °F 78% 30.32 in 10.0 mi North 12.7 mph 18.4 mph N/A   Clear
6:55 AM 52.7 °F 46.2 °F 79% 30.33 in 10.0 mi North 10.4 mph - N/A   Clear
7:15 AM 52.7 °F 46.2 °F 79% 30.35 in 10.0 mi NNE 9.2 mph 16.1 mph N/A   Clear
7:35 AM 52.5 °F 46.4 °F 80% 30.36 in 10.0 mi North 9.2 mph - N/A   Clear
7:55 AM 52.7 °F 46.8 °F 80% 30.37 in 10.0 mi North 10.4 mph - N/A   Clear
8:15 AM 53.2 °F 47.1 °F 80% 30.37 in 10.0 mi North 10.4 mph - N/A   Clear
8:35 AM 54.5 °F 47.5 °F 77% 30.38 in 10.0 mi North 12.7 mph 16.1 mph N/A   Clear
8:55 AM 55.2 °F 47.3 °F 75% 30.39 in 10.0 mi North 11.5 mph - N/A   Clear
9:15 AM 55.4 °F 47.1 °F 74% 30.39 in 10.0 mi NNE 11.5 mph 16.1 mph N/A   Clear
9:35 AM 56.1 °F 47.3 °F 72% 30.39 in 10.0 mi NNE 10.4 mph 18.4 mph N/A   Clear
9:55 AM 56.8 °F 47.1 °F 70% 30.38 in 10.0 mi NNE 12.7 mph 18.4 mph N/A   Clear
10:15 AM 57.7 °F 47.1 °F 68% 30.39 in 10.0 mi North 12.7 mph 19.6 mph N/A   Clear
10:35 AM 58.8 °F 47.5 °F 66% 30.39 in 10.0 mi NNE 11.5 mph - N/A   Clear
10:55 AM 59.9 °F 47.5 °F 64% 30.39 in 10.0 mi NNE 10.4 mph 17.3 mph N/A   Clear
11:15 AM 60.4 °F 47.8 °F 63% 30.39 in 10.0 mi North 12.7 mph - N/A   Scattered Clouds
11:35 AM 60.8 °F 48.2 °F 63% 30.38 in 10.0 mi North 11.5 mph - N/A   Scattered Clouds
11:55 AM 60.3 °F 48.0 °F 64% 30.38 in 10.0 mi North 12.7 mph - N/A   Scattered Clouds
12:15 PM 61.3 °F 47.7 °F 61% 30.36 in 10.0 mi North 15.0 mph 20.7 mph N/A   Clear
12:35 PM 61.5 °F 47.3 °F 60% 30.36 in 10.0 mi North 13.8 mph 18.4 mph N/A   Scattered Clouds
12:55 PM 60.8 °F 47.3 °F 61% 30.34 in 10.0 mi North 15.0 mph 19.6 mph N/A   Scattered Clouds
1:15 PM 61.5 °F 47.1 °F 59% 30.34 in 10.0 mi North 12.7 mph 17.3 mph N/A   Clear
1:35 PM 62.1 °F 46.9 °F 58% 30.32 in 10.0 mi North 11.5 mph 18.4 mph N/A   Clear
1:55 PM 61.9 °F 46.4 °F 57% 30.32 in 10.0 mi North 15.0 mph 18.4 mph N/A   Clear
2:15 PM 61.2 °F 45.7 °F 57% 30.29 in 10.0 mi North 12.7 mph - N/A   Clear
2:35 PM 61.7 °F 45.5 °F 55% 30.29 in 10.0 mi North 9.2 mph - N/A   Clear
2:55 PM 62.2 °F 45.1 °F 54% 30.29 in 10.0 mi North 9.2 mph - N/A   Clear
3:15 PM 61.9 °F 45.5 °F 55% 30.29 in 10.0 mi North 11.5 mph - N/A   Clear
3:35 PM 61.9 °F 44.6 °F 53% 30.28 in 10.0 mi NNE 10.4 mph 17.3 mph N/A   Clear
3:55 PM 62.1 °F 45.0 °F 53% 30.29 in 10.0 mi NNE 6.9 mph - N/A   Clear
4:15 PM 61.3 °F 45.5 °F 56% 30.28 in 10.0 mi North 8.1 mph - N/A   Clear
4:35 PM 61.0 °F 46.6 °F 59% 30.28 in 10.0 mi North 10.4 mph - N/A   Clear
4:55 PM 60.8 °F 46.9 °F 60% 30.28 in 10.0 mi North 9.2 mph - N/A   Clear
5:15 PM 60.3 °F 46.8 °F 61% 30.28 in 10.0 mi NNW 6.9 mph - N/A   Clear
5:35 PM 60.1 °F 46.2 °F 60% 30.28 in 10.0 mi North 8.1 mph - N/A   Clear
5:55 PM 59.4 °F 46.2 °F 62% 30.28 in 10.0 mi North 4.6 mph - N/A   Clear
6:15 PM 58.8 °F 46.8 °F 64% 30.29 in 10.0 mi NNW 4.6 mph - N/A   Clear
6:35 PM 57.4 °F 47.5 °F 70% 30.28 in 10.0 mi NNW 5.8 mph - N/A   Clear
6:55 PM 56.7 °F 47.7 °F 72% 30.29 in 10.0 mi NNW 5.8 mph - N/A   Clear
7:15 PM 56.8 °F 47.5 °F 71% 30.29 in 10.0 mi North 8.1 mph - N/A   Clear
7:35 PM 56.3 °F 47.3 °F 72% 30.29 in 10.0 mi NNW 6.9 mph - N/A   Clear
7:55 PM 55.6 °F 46.9 °F 73% 30.29 in 10.0 mi North 6.9 mph - N/A   Clear
8:15 PM 54.7 °F 46.8 °F 75% 30.30 in 10.0 mi North 6.9 mph - N/A   Clear
8:35 PM 54.0 °F 46.6 °F 76% 30.30 in 10.0 mi North 6.9 mph - N/A   Clear
8:55 PM 53.8 °F 46.2 °F 76% 30.32 in 10.0 mi NNW 4.6 mph - N/A   Clear
9:15 PM 53.8 °F 45.7 °F 74% 30.32 in 10.0 mi NW 3.5 mph - N/A   Clear
9:35 PM 53.4 °F 45.9 °F 76% 30.32 in 10.0 mi NNW 4.6 mph - N/A   Clear
9:55 PM 53.1 °F 46.4 °F 78% 30.32 in 10.0 mi North 4.6 mph - N/A   Clear
10:15 PM 52.9 °F 46.4 °F 79% 30.31 in 10.0 mi North 6.9 mph - N/A   Clear
10:35 PM 52.7 °F 46.4 °F 79% 30.32 in 10.0 mi North 5.8 mph - N/A   Clear
10:55 PM 52.2 °F 46.4 °F 81% 30.31 in 10.0 mi NNE 4.6 mph - N/A   Clear
11:15 PM 51.6 °F 46.0 °F 81% 30.30 in 10.0 mi NNE 4.6 mph - N/A   Clear
11:35 PM 51.8 °F 46.0 °F 81% 30.30 in 10.0 mi North 4.6 mph - N/A   Clear
11:55 PM 51.8 °F 45.9 °F 80% 30.31 in 10.0 mi NNW 3.5 mph - N/A   Clear